Regional Weather Roundup
Issued by NWS

Home | Current Version | Previous Version | Text Only | Print | Product List | Glossary On
Versions: 1 2 3 4 5 6 7 8 9 10 11 12 13 14 15 16 17 18 19 20 21 22 23 24 25 26 27 28 29 30 31 32 33 34 35 36 37 38 39 40 41 42 43 44 45 46 47 48 49 50
000
ASUS43 KDTX 051801
RWRMI
MICHIGAN HOURLY REGIONAL WEATHER ROUNDUP
NATIONAL WEATHER SERVICE DETROIT/PONTIAC MI
200 PM EDT SUN JUL 05 2015

NOTE: "FAIR" INDICATES FEW OR NO CLOUDS BELOW 12,000 FEET WITH NO
SIGNIFICANT WEATHER AND/OR OBSTRUCTION TO VISIBILITY.

MIZ047>049-052>055-059>063-066>070-074>076-081>083-051900-
SOUTHEAST LOWER MICHIGAN

CITY           SKY/WX    TMP DP  RH WIND       PRES   REMARKS
ADRIAN         PTSUNNY   79  57  46 S7        30.13S
6HR MIN TEMP:  62; 6HR MAX TEMP:  79;

ALMA           SUNNY     80  56  43 S6        30.11F
ANN ARBOR      MOSUNNY   80  61  52 VRB5      30.12S
BAD AXE        MOSUNNY   80  61  52 W5        30.13R
CARO           SUNNY     80  62  53 S5        30.12S
DETROIT CITY   MOSUNNY   79  57  46 S8        30.12F
6HR MIN TEMP:  67; 6HR MAX TEMP:  80;

DETROIT        MOSUNNY   81  58  45 S5        30.13F
6HR MIN TEMP:  64; 6HR MAX TEMP:  81;

FLINT          SUNNY     82  59  45 VRB5      30.12S
6HR MIN TEMP:  64; 6HR MAX TEMP:  82;

GROSSE ILE     MOSUNNY   75  57  53 S7        30.12F
HILLSDALE      MOSUNNY   78  60  52 SE7       30.13F
6HR MIN TEMP:  62; 6HR MAX TEMP:  78;

HOWELL         SUNNY     79  58  48 SE6       30.12F
6HR MIN TEMP:  61; 6HR MAX TEMP:  80;


CITY           SKY/WX    TMP DP  RH WIND       PRES   REMARKS
JACKSON        MOSUNNY   80  60  50 SW9       30.12F
6HR MIN TEMP:  60; 6HR MAX TEMP:  80;

LAMBERTVILLE   MOSUNNY   81  56  42 NE5       30.13S
6HR MIN TEMP:  61; 6HR MAX TEMP:  81;

LANSING        SUNNY     80  59  48 MISG      30.12S
6HR MIN TEMP:  63; 6HR MAX TEMP:  80;

LAPEER         FAIR      80  56  43 SW3       30.13R
MASON          SUNNY     77  59  54 SW6       30.12F
MONROE         MOSUNNY   78  58  49 S5        30.12S
6HR MIN TEMP:  62; 6HR MAX TEMP:  78;

MT. CLEMENS    MOSUNNY   79  60  51 SE9       30.11S
6HR MIN TEMP:  67; 6HR MAX TEMP:  80;

PONTIAC        MOSUNNY   80  59  48 VRB7      30.12S
6HR MIN TEMP:  63; 6HR MAX TEMP:  81;

PORT HOPE        N/A     68  63  84 CALM      30.12R
6HR MIN TEMP:  65; 6HR MAX TEMP:  70;

PORT HURON     SUNNY     79  61  53 S7        30.13S
TRI CITIES     SUNNY     80  61  52 CALM      30.12S
6HR MIN TEMP:  64; 6HR MAX TEMP:  81;

MIDLAND        FAIR      81  58  45 S7        30.10F
TROY           MOSUNNY   82  54  38 SW3       30.14S
SAGINAW HB     SUNNY     79  59  50 SW8       30.11S
$$
MIZ043>046-050>051-056>058-064>065-071>073-077>080-051900-
SOUTHWEST LOWER MICHIGAN

CITY           SKY/WX    TMP DP  RH WIND       PRES   REMARKS
BATTLE CREEK   MOSUNNY   80  61  52 S7        30.12F
6HR MIN TEMP:  64; 6HR MAX TEMP:  81;

BENTON HARBOR  SUNNY     80  61  52 W8        30.10S
6HR MIN TEMP:  61; 6HR MAX TEMP:  81;

BIG RAPIDS     SUNNY     79  57  46 SE5       30.10F
6HR MIN TEMP:  58; 6HR MAX TEMP:  79;

COLDWATER      SUNNY     78  56  46 CALM      30.12S
6HR MIN TEMP:  60; 6HR MAX TEMP:  78;

FREMONT        FAIR      81  55  40 S7        30.09F HAZE
6HR MIN TEMP:  60; 6HR MAX TEMP:  81;

HOLLAND        SUNNY     82  59  45 W9        30.11S
6HR MIN TEMP:  61; 6HR MAX TEMP:  83;

GRAND RAPIDS   CLOUDY    81  59  47 S6        30.10S
6HR MIN TEMP:  60; 6HR MAX TEMP:  81;

IONIA          FAIR      80  59  47 W3        30.10S
KALAMAZOO      SUNNY     81  60  48 S3        30.11S
6HR MIN TEMP:  63; 6HR MAX TEMP:  81;

LUDINGTON      SUNNY     78  62  57 W6        30.08F
6HR MIN TEMP:  61; 6HR MAX TEMP:  79;

MARSHALL       SUNNY     80  58  48 CALM      30.11F
MOUNT PLEASANT SUNNY     80  60  50 SE6       30.10F
6HR MIN TEMP:  62; 6HR MAX TEMP:  81;

MUSKEGON       MOSUNNY   81  59  47 SW8       30.09F
6HR MIN TEMP:  62; 6HR MAX TEMP:  81;

SOUTH HAVEN    SUNNY     79  59  49 W7        30.10S
$$
MIZ016>042-051900-
NORTHERN LOWER MICHIGAN

CITY           SKY/WX    TMP DP  RH WIND       PRES   REMARKS
ALPENA         SUNNY     78  60  53 E9        30.10S
6HR MIN TEMP:  57; 6HR MAX TEMP:  80;

BEAVER ISLAND  SUNNY     77  60  55 SW10      30.06S
6HR MIN TEMP:  62; 6HR MAX TEMP:  78;

BELLAIRE       SUNNY     82  60  48 SW5       30.05F
6HR MIN TEMP:  56; 6HR MAX TEMP:  82;

CADILLAC       PTSUNNY   80  62  53 SW3       30.10S
CHARLEVOIX     SUNNY     81  62  51 S9        30.08F
6HR MIN TEMP:  59; 6HR MAX TEMP:  82;

FRANKFORT      SUNNY     80  57  46 SW8G16    30.06F
GAYLORD        MOSUNNY   80  60  50 MISG      30.09F
6HR MIN TEMP:  57; 6HR MAX TEMP:  80;

GRAYLING       MOSUNNY   81  62  51 S6        30.10F
6HR MIN TEMP:  53; 6HR MAX TEMP:  81;

HARBOR SPRINGS SUNNY     79  63  57 CALM      30.06F
HOUGHTON LAKE  SUNNY     79  60  52 SW6       30.11F
6HR MIN TEMP:  56; 6HR MAX TEMP:  80;

MANISTEE       MOSUNNY   81  61  50 S9        30.07F
OSCODA         SUNNY     75  56  51 E8        30.11F
PELLSTON       SUNNY     81  63  54 SW9       30.07S
6HR MIN TEMP:  54; 6HR MAX TEMP:  81;

ROGERS CITY    SUNNY     80  61  51 S6        30.07F
TRAVERSE CITY  PTSUNNY   82  62  50 W8        30.04F
6HR MIN TEMP:  62; 6HR MAX TEMP:  84;

$$
MIZ007>008-015-051900-
EASTERN UPPER MICHIGAN

CITY           SKY/WX    TMP DP  RH WIND       PRES   REMARKS
KINROSS        SUNNY     79  63  57 SW8       30.06F
6HR MIN TEMP:  59; 6HR MAX TEMP:  79;

MACKINAC ISLAN SUNNY     76  61  61 NE5       30.07S
6HR MIN TEMP:  60; 6HR MAX TEMP:  76;

NEWBERRY       SUNNY     76  64  68 S10       30.04S
6HR MIN TEMP:  60; 6HR MAX TEMP:  76;

S. S. MARIE    MOSUNNY   79  64  60 VRB5      30.05S
6HR MIN TEMP:  54; 6HR MAX TEMP:  79;

$$
MIZ004>006-011>014-085-051900-
CENTRAL UPPER MICHIGAN

CITY           SKY/WX    TMP DP  RH WIND       PRES   REMARKS
MANISTIQUE     SUNNY     67  59  75 S9G16     30.05R
6HR MIN TEMP:  59; 6HR MAX TEMP:  67;

ESCANABA       SUNNY     75  64  69 S13       30.00S
6HR MIN TEMP:  64; 6HR MAX TEMP:  75;

MENOMINEE      SUNNY     79  63  57 SW14      30.01S
6HR MIN TEMP:  64; 6HR MAX TEMP:  79;

SAWYER-GWINN   SUNNY     81  61  50 SW14      29.99F HAZE
$$
MIZ001>003-009>011-084-051900-
WESTERN UPPER MICHIGAN

CITY           SKY/WX    TMP DP  RH WIND       PRES   REMARKS
IRON MOUNTAIN  MOSUNNY   81  61  50 S16       29.99F
6HR MIN TEMP:  62; 6HR MAX TEMP:  81;

HOUGHTON       MOSUNNY   82  61  48 S14       29.93F
6HR MIN TEMP:  61; 6HR MAX TEMP:  82;

COPPER HARBOR    N/A     56  52  86 CALM      29.94F
6HR MIN TEMP:  54; 6HR MAX TEMP:  79;

IRONWOOD       PTSUNNY   79  61  53 S14G20    29.90S
6HR MIN TEMP:  66; 6HR MAX TEMP:  79;

$$

ABBREVIATIONS USED IN REMARKS
   TC - TEMPERATURE IN CELSIUS
  WCI - WIND CHILL INDEX
   HX - HEAT INDEX
  VSB - VISIBILITY




USA.gov is the U.S. government's official web portal to all federal, state and local government web resources and services.